{"data":{"norad_id":65828,"intl_designator":"2025-221F","name":"STARLINK-35396","alt_names":[],"object_type":"PAYLOAD","status":"ACTIVE","operator":null,"country":"US","launch_date":"2025-09-29","launch_site_code":"AFWTR","launch_vehicle":null,"mission":null,"orbit_class":"UNKNOWN","rcs_meters":null,"size_class":null,"mass_kg":null,"dimensions":null,"purposes":["comms"],"wikipedia_slug":null,"has_3d_model":false,"image_url":null,"decayed_at":null,"tle_current":{"epoch":"2026-05-25T03:45:15.062112Z","epoch_age_seconds":54700,"freshness":"FRESH","line1":"1 65828U 25221F   26145.15642433  .00008753  00000+0  26992-3 0  9990","line2":"2 65828  53.1584  92.9617 0001201  73.0071 287.1063 15.34395671 37790","mean_motion":15.34395671,"eccentricity":0.0001201,"inclination_deg":53.1584,"raan_deg":92.9617,"arg_perigee_deg":73.0071,"mean_anomaly_deg":287.1063,"bstar":0.00026992,"rev_number":3779,"period_min":93.848022854595,"perigee_km":461.89452047951,"apogee_km":463.53769339579,"semimajor_km":6840.8531069377,"source":"CELESTRAK","updated_at":"2026-05-25T13:38:20.942501Z"}}}